AFL3110 UTAA-UTAA

Flight info

Callsign AFL3110
Flight time 0h 31m
Altitude 18000
Route UTAA KEMOR UTAA
Aircraft B738/M-SDE2E3FGHIRWXY/LB1

Departure

Time 2026-04-13 22:08
Airport Ashgabat International Airport (UTAA)

Arrival

Time 2026-04-13 22:40
Airport Ashgabat International Airport (UTAA)
Time Latitude Longitude Altitude Speed Heading
2026-04-13 22:06 37.99917 58.34252 697 ft 0 kts 31°
2026-04-13 22:07 37.99952 58.34279 694 ft 12 kts 31°
2026-04-13 22:07 37.99994 58.34376 693 ft 14 kts 109°
2026-04-13 22:07 37.99969 58.34439 691 ft 0 kts 119°
2026-04-13 22:08 37.99890 58.34616 688 ft 70 kts 120°
2026-04-13 22:08 37.99483 58.35520 692 ft 162 kts 121°
2026-04-13 22:08 37.98835 58.36974 1168 ft 197 kts 120°
2026-04-13 22:08 37.98165 58.38503 2062 ft 208 kts 120°
2026-04-13 22:09 37.97611 58.40217 2822 ft 216 kts 100°
2026-04-13 22:09 37.97959 58.42137 3148 ft 239 kts 58°
2026-04-13 22:09 37.99172 58.43669 3551 ft 255 kts 50°
2026-04-13 22:09 37.99885 58.45730 3879 ft 263 kts 90°
2026-04-13 22:10 37.99597 58.48019 4444 ft 265 kts 108°
2026-04-13 22:10 37.99128 58.50255 5184 ft 264 kts 108°
2026-04-13 22:10 37.98686 58.52550 5709 ft 272 kts 106°
2026-04-13 22:10 37.98283 58.54920 6387 ft 277 kts 104°
2026-04-13 22:11 37.97917 58.57339 7374 ft 282 kts 104°
2026-04-13 22:11 37.97576 58.59815 8397 ft 287 kts 104°
2026-04-13 22:11 37.97253 58.62330 9432 ft 292 kts 104°
2026-04-13 22:11 37.96942 58.64894 10380 ft 297 kts 103°
2026-04-13 22:12 37.96636 58.67512 11290 ft 303 kts 103°
2026-04-13 22:12 37.96331 58.70187 12186 ft 309 kts 103°
2026-04-13 22:12 37.96027 58.72913 13109 ft 315 kts 103°
2026-04-13 22:12 37.95720 58.75689 14008 ft 320 kts 103°
2026-04-13 22:13 37.95415 58.78466 14841 ft 325 kts 103°
2026-04-13 22:13 37.95103 58.81319 15694 ft 329 kts 103°
2026-04-13 22:13 37.94786 58.84213 16533 ft 334 kts 103°
2026-04-13 22:13 37.94464 58.87158 17351 ft 340 kts 103°
2026-04-13 22:14 37.94138 58.90131 17768 ft 342 kts 103°
2026-04-13 22:14 37.93807 58.93143 17873 ft 347 kts 103°
2026-04-13 22:14 37.93476 58.96158 17876 ft 344 kts 103°
2026-04-13 22:14 37.93146 58.99162 17887 ft 343 kts 103°
2026-04-13 22:15 37.92816 59.02154 17890 ft 343 kts 103°
2026-04-13 22:15 37.92485 59.05142 17878 ft 343 kts 102°
2026-04-13 22:15 37.92157 59.08092 17883 ft 342 kts 103°
2026-04-13 22:15 37.91824 59.11079 17887 ft 342 kts 103°
2026-04-13 22:16 37.91491 59.14062 17892 ft 342 kts 103°
2026-04-13 22:16 37.91155 59.17054 17884 ft 343 kts 103°
2026-04-13 22:16 37.90819 59.20046 17888 ft 343 kts 103°
2026-04-13 22:16 37.90483 59.23038 17886 ft 343 kts 103°
2026-04-13 22:17 37.90146 59.26035 17889 ft 344 kts 103°
2026-04-13 22:17 37.89807 59.29032 17886 ft 344 kts 103°
2026-04-13 22:17 37.89467 59.32029 17876 ft 344 kts 102°
2026-04-13 22:17 37.89033 59.34989 17873 ft 339 kts 113°
2026-04-13 22:18 37.88033 59.37642 17897 ft 332 kts 124°
2026-04-13 22:18 37.87163 59.40378 17877 ft 346 kts 104°
2026-04-13 22:18 37.87133 59.43525 17897 ft 380 kts 83°
2026-04-13 22:18 37.88067 59.46715 17888 ft 393 kts 60°
2026-04-13 22:19 37.89866 59.49322 17889 ft 395 kts 38°
2026-04-13 22:19 37.92256 59.50993 17879 ft 393 kts 17°
2026-04-13 22:19 37.94926 59.51519 17878 ft 387 kts 355°
2026-04-13 22:19 37.97512 59.50795 17882 ft 378 kts 331°
2026-04-13 22:20 37.99589 59.48873 17885 ft 366 kts 306°
2026-04-13 22:20 38.00922 59.46184 17881 ft 358 kts 288°
2026-04-13 22:20 38.01645 59.43191 17888 ft 354 kts 280°
2026-04-13 22:20 38.02240 59.40162 17876 ft 354 kts 279°
2026-04-13 22:21 38.02812 59.37113 17872 ft 355 kts 279°
2026-04-13 22:21 38.03382 59.34064 17870 ft 355 kts 279°
2026-04-13 22:21 38.03957 59.31022 17878 ft 355 kts 279°
2026-04-13 22:21 38.04533 59.28014 17751 ft 356 kts 279°
2026-04-13 22:22 38.05120 59.24971 17378 ft 352 kts 279°
2026-04-13 22:22 38.05705 59.21964 16936 ft 349 kts 279°
2026-04-13 22:22 38.06285 59.18994 16476 ft 345 kts 279°
2026-04-13 22:22 38.06859 59.16052 16001 ft 342 kts 279°
2026-04-13 22:23 38.07426 59.13139 15540 ft 338 kts 279°
2026-04-13 22:23 38.07987 59.10257 15088 ft 336 kts 279°
2026-04-13 22:23 38.08544 59.07391 14633 ft 333 kts 279°
2026-04-13 22:23 38.09097 59.04546 14194 ft 331 kts 278°
2026-04-13 22:24 38.09644 59.01722 13748 ft 329 kts 279°
2026-04-13 22:24 38.10189 58.98905 13238 ft 328 kts 279°
2026-04-13 22:24 38.10730 58.96103 12763 ft 326 kts 279°
2026-04-13 22:24 38.11268 58.93316 12300 ft 324 kts 279°
2026-04-13 22:25 38.11802 58.90547 11853 ft 322 kts 279°
2026-04-13 22:25 38.12332 58.87792 11399 ft 320 kts 279°
2026-04-13 22:25 38.12859 58.85056 10968 ft 318 kts 279°
2026-04-13 22:25 38.13382 58.82328 10545 ft 317 kts 279°
2026-04-13 22:26 38.13897 58.79650 10377 ft 306 kts 279°
2026-04-13 22:26 38.14396 58.77061 10236 ft 296 kts 278°
2026-04-13 22:26 38.14876 58.74560 10106 ft 286 kts 278°
2026-04-13 22:26 38.15341 58.72134 9943 ft 279 kts 278°
2026-04-13 22:27 38.15795 58.69749 9713 ft 273 kts 278°
2026-04-13 22:27 38.16229 58.67482 9628 ft 256 kts 278°
2026-04-13 22:27 38.16637 58.65347 9508 ft 241 kts 278°
2026-04-13 22:27 38.17016 58.63360 9405 ft 228 kts 278°
2026-04-13 22:28 38.17379 58.61453 9300 ft 215 kts 277°
2026-04-13 22:28 38.17546 58.60573 9251 ft 209 kts 277°
2026-04-13 22:28 38.17662 58.59963 9200 ft 205 kts 277°
2026-04-13 22:28 38.17990 58.58222 8965 ft 201 kts 277°
2026-04-13 22:29 38.18315 58.56493 8651 ft 201 kts 277°
2026-04-13 22:29 38.18639 58.54766 8352 ft 201 kts 277°
2026-04-13 22:29 38.18964 58.53042 8053 ft 201 kts 277°
2026-04-13 22:29 38.19180 58.51892 7857 ft 201 kts 277°
2026-04-13 22:30 38.19504 58.50172 7582 ft 199 kts 277°
2026-04-13 22:30 38.19827 58.48460 7296 ft 199 kts 278°
2026-04-13 22:30 38.20150 58.46752 7072 ft 195 kts 279°
2026-04-13 22:30 38.20463 58.45094 6872 ft 190 kts 279°
2026-04-13 22:31 38.20764 58.43492 6628 ft 189 kts 279°
2026-04-13 22:31 38.21069 58.41871 6343 ft 189 kts 279°
2026-04-13 22:31 38.21374 58.40247 6054 ft 189 kts 279°
2026-04-13 22:31 38.21679 58.38632 5862 ft 184 kts 279°
2026-04-13 22:32 38.21978 58.37068 5871 ft 183 kts 279°
2026-04-13 22:32 38.22159 58.35461 5867 ft 184 kts 257°
2026-04-13 22:32 38.21642 58.33991 5729 ft 186 kts 232°
2026-04-13 22:32 38.20851 58.32689 5478 ft 185 kts 220°
2026-04-13 22:33 38.19896 58.31631 5239 ft 180 kts 217°
2026-04-13 22:33 38.18961 58.30602 4997 ft 175 kts 217°
2026-04-13 22:33 38.18053 58.29588 4773 ft 173 kts 217°
2026-04-13 22:34 38.15343 58.26484 4028 ft 177 kts 217°
2026-04-13 22:34 38.14437 58.25428 3794 ft 176 kts 217°
2026-04-13 22:34 38.13829 58.24716 3624 ft 176 kts 217°
2026-04-13 22:35 38.12629 58.23309 3306 ft 178 kts 217°
2026-04-13 22:35 38.12015 58.22584 3139 ft 177 kts 217°
2026-04-13 22:35 38.11134 58.21586 2852 ft 166 kts 207°
2026-04-13 22:35 38.10122 58.21305 2692 ft 140 kts 163°
2026-04-13 22:36 38.09199 58.21709 2315 ft 142 kts 158°
2026-04-13 22:36 38.08293 58.22108 2166 ft 131 kts 158°
2026-04-13 22:36 38.07432 58.22533 2197 ft 138 kts 155°
2026-04-13 22:36 38.06564 58.22985 2256 ft 133 kts 156°
2026-04-13 22:37 38.05713 58.23424 2238 ft 132 kts 155°
2026-04-13 22:37 38.04857 58.23886 2258 ft 133 kts 154°
2026-04-13 22:37 38.04028 58.24368 2290 ft 129 kts 147°
2026-04-13 22:37 38.03399 58.25197 2101 ft 136 kts 115°
2026-04-13 22:38 38.03253 58.26377 1916 ft 134 kts 94°
2026-04-13 22:38 38.03150 58.27530 1946 ft 137 kts 104°
2026-04-13 22:38 38.02755 58.28623 1848 ft 139 kts 126°
2026-04-13 22:38 38.02164 58.29612 1495 ft 142 kts 124°
2026-04-13 22:39 38.01690 58.30685 1281 ft 139 kts 119°
2026-04-13 22:39 38.01202 58.31720 1083 ft 140 kts 124°
2026-04-13 22:39 38.00712 58.32786 949 ft 140 kts 122°
2026-04-13 22:39 38.00221 58.33869 824 ft 142 kts 122°
2026-04-13 22:40 37.99737 58.34943 696 ft 132 kts 120°
2026-04-13 22:40 37.99362 58.35789 690 ft 88 kts 120°
2026-04-13 22:40 37.99137 58.36300 695 ft 44 kts 118°
2026-04-13 22:40 37.99061 58.36474 690 ft 1 kts 119°
2026-04-13 22:41 37.99060 58.36478 692 ft 0 kts 119°
2026-04-13 22:41 37.99043 58.36516 694 ft 11 kts 119°
2026-04-13 22:41 37.99012 58.36587 690 ft 0 kts 119°
2026-04-13 22:48 37.99006 58.36601 693 ft 17 kts 119°
2026-04-13 22:48 37.98776 58.37110 696 ft 114 kts 120°
2026-04-13 22:48 37.98271 58.38271 1002 ft 170 kts 121°
2026-04-13 22:48 37.97683 58.39561 2226 ft 156 kts 119°
2026-04-13 22:49 37.97208 58.40651 3355 ft 158 kts 121°
2026-04-13 22:49 37.96548 58.42129 2606 ft 208 kts 120°
2026-04-13 22:49 37.95824 58.43687 2737 ft 216 kts 121°
2026-04-13 22:49 37.95079 58.45550 2663 ft 250 kts 108°
2026-04-13 22:50 37.95018 58.47753 2581 ft 257 kts 78°
2026-04-13 22:50 37.95840 58.49781 2519 ft 262 kts 56°
2026-04-13 22:50 37.96789 58.51710 2639 ft 254 kts 69°
2026-04-13 22:50 37.97350 58.53817 2854 ft 252 kts 81°
2026-04-13 22:51 37.97585 58.56026 3059 ft 253 kts 90°
2026-04-13 22:51 37.97573 58.58246 3247 ft 251 kts 97°
2026-04-13 22:51 37.97554 58.60470 3426 ft 258 kts 82°
2026-04-13 22:51 37.98336 58.62544 3610 ft 268 kts 53°
2026-04-13 22:52 37.99822 58.63970 3807 ft 278 kts 30°
2026-04-13 22:52 38.01600 58.65006 4033 ft 283 kts 27°
2026-04-13 22:52 38.03418 58.66006 4035 ft 286 kts 26°
2026-04-13 22:52 38.05242 58.67001 4015 ft 284 kts 26°
2026-04-13 22:53 38.07049 58.67976 4006 ft 280 kts 26°
2026-04-13 22:53 38.08915 58.68686 4000 ft 284 kts
2026-04-13 22:53 38.10873 58.68327 4021 ft 290 kts 338°
2026-04-13 22:53 38.12540 58.66891 4021 ft 292 kts 310°
2026-04-13 22:54 38.13736 58.64797 4018 ft 292 kts 301°
2026-04-13 22:54 38.14821 58.62602 4009 ft 293 kts 300°
2026-04-13 22:54 38.15876 58.60426 4005 ft 293 kts 300°
2026-04-13 22:54 38.16941 58.58213 4013 ft 294 kts 299°
2026-04-13 22:55 38.18007 58.55998 4010 ft 294 kts 299°
2026-04-13 22:55 38.19071 58.53787 4008 ft 291 kts 299°
2026-04-13 22:55 38.20106 58.51637 3994 ft 278 kts 299°
2026-04-13 22:55 38.21091 58.49592 3999 ft 264 kts 299°
2026-04-13 22:56 38.22032 58.47646 4003 ft 252 kts 299°
2026-04-13 22:56 38.22930 58.45790 4005 ft 243 kts 299°
2026-04-13 22:56 38.23808 58.43974 4007 ft 240 kts 299°
2026-04-13 22:56 38.24684 58.42163 4020 ft 240 kts 299°
2026-04-13 22:57 38.25538 58.40340 4021 ft 239 kts 292°
2026-04-13 22:57 38.25727 58.38327 4015 ft 228 kts 250°
2026-04-13 22:57 38.24908 58.36722 3917 ft 217 kts 215°
2026-04-13 22:57 38.23757 58.35537 3832 ft 205 kts 217°
2026-04-13 22:58 38.22758 58.34349 3706 ft 194 kts 220°
2026-04-13 22:58 38.21850 58.33138 3582 ft 185 kts 222°
2026-04-13 22:58 38.21021 58.31936 3435 ft 177 kts 224°
2026-04-13 22:58 38.20251 58.30752 3302 ft 174 kts 225°
2026-04-13 22:59 38.19497 58.29548 3182 ft 173 kts 226°
2026-04-13 22:59 38.18762 58.28333 3058 ft 173 kts 227°
2026-04-13 22:59 38.18041 58.27110 2934 ft 173 kts 228°
2026-04-13 22:59 38.17333 58.25875 2816 ft 173 kts 229°
2026-04-13 23:00 38.16632 58.24634 2688 ft 173 kts 229°
2026-04-13 23:00 38.15931 58.23378 2572 ft 174 kts 230°
2026-04-13 23:00 38.15231 58.22121 2531 ft 175 kts 230°
2026-04-13 23:00 38.14541 58.20874 2520 ft 170 kts 230°
2026-04-13 23:01 38.13872 58.19664 2518 ft 165 kts 231°
2026-04-13 23:01 38.13214 58.18476 2534 ft 164 kts 230°
2026-04-13 23:01 38.12353 58.17613 2503 ft 156 kts 187°
2026-04-13 23:01 38.11311 58.17808 2540 ft 155 kts 162°
2026-04-13 23:02 38.10276 58.18177 2525 ft 153 kts 162°
2026-04-13 23:02 38.09288 58.18527 2506 ft 142 kts 162°
2026-04-13 23:02 38.08363 58.18856 2510 ft 137 kts 162°
2026-04-13 23:02 38.07451 58.19182 2509 ft 134 kts 160°
2026-04-13 23:03 38.06699 58.19783 2526 ft 127 kts 140°
2026-04-13 23:03 38.06098 58.20592 2519 ft 126 kts 117°
2026-04-13 23:03 38.05713 58.21592 2525 ft 127 kts 123°
2026-04-13 23:03 38.05239 58.22551 2534 ft 129 kts 120°
2026-04-13 23:04 38.04804 58.23552 2531 ft 129 kts 120°
2026-04-13 23:04 38.04369 58.24541 2528 ft 128 kts 121°
2026-04-13 23:04 38.03931 58.25526 2519 ft 129 kts 121°
2026-04-13 23:04 38.03481 58.26535 2362 ft 133 kts 121°
2026-04-13 23:05 38.03012 58.27547 2096 ft 134 kts 121°
2026-04-13 23:05 38.02561 58.28587 1831 ft 135 kts 118°
2026-04-13 23:05 38.02112 58.29641 1587 ft 137 kts 120°
2026-04-13 23:05 38.01648 58.30692 1393 ft 136 kts 121°
2026-04-13 23:06 38.01173 58.31744 1179 ft 140 kts 121°
2026-04-13 23:06 38.00707 58.32797 1013 ft 139 kts 121°
2026-04-13 23:06 38.00224 58.33864 855 ft 140 kts 121°
2026-04-13 23:06 37.99747 58.34935 696 ft 134 kts 122°
2026-04-13 23:07 37.99337 58.35851 692 ft 95 kts 118°
2026-04-13 23:07 37.99100 58.36389 692 ft 53 kts 119°
2026-04-13 23:07 37.98974 58.36675 691 ft 17 kts 117°
2026-04-13 23:07 37.98894 58.36760 693 ft 16 kts 195°
2026-04-13 23:08 37.98798 58.36689 697 ft 16 kts 210°
2026-04-13 23:08 37.98696 58.36653 698 ft 15 kts 205°
2026-04-13 23:08 37.98606 58.36594 701 ft 14 kts 208°
2026-04-13 23:08 37.98521 58.36533 699 ft 14 kts 211°
2026-04-13 23:09 37.98463 58.36485 701 ft 1 kts 225°
2026-04-13 23:09 37.98450 58.36460 698 ft 5 kts 256°
2026-04-13 23:09 37.98465 58.36410 701 ft 8 kts 298°
2026-04-13 23:09 37.98488 58.36358 700 ft 0 kts 299°